Home   Weather   Red Deer   Past weeks

Flag for Canada Past Weather in Red Deer, Alberta, Canada — Yesterday and Last 2 Weeks

Now
32 °F

Passing clouds.


Feels Like: 29 °F
Forecast: 15 / 26 °F
Wind: 3 mph from Northeast

Location: Red Deer

Current Time: Jan 20, 2017 at 5:23:38 pm

Latest Report: Jan 20, 2017 at 4:00 pm


Visibility: 15 mi

Pressure: 29.42 "Hg (26.43 "Hg at 857m altitude)

Humidity: 55%

Dew Point: 18 °F

Location of Red DeerLocation

Past Weather in Red Deer — Graph

°F

Red Deer Temperature Yesterday

Maximum temperature yesterday: 43 °F (at 5:00 pm)
Minimum temperature yesterday: 25 °F (at 8:00 pm)
Average temperature yesterday: 36 °F

High & Low Weather Summary for the Past Weeks

 TemperatureHumidityPressure
High46 °F (Jan 18, 12:00 pm)92% (Jan 5, 6:00 pm)30.49 "Hg (Jan 5, 6:00 pm)
Low-15 °F (Jan 10, 7:00 pm)49% (Jan 19, 5:00 pm)29.26 "Hg (Jan 19, 2:00 pm)
Average12 °F73%29.96 "Hg
* Reported Jan 5 4:00 pm — Jan 20 4:00 pm, Red Deer, Weather by CustomWeather, © 2017

Note: Actual official high and low records may vary slightly from our data, if they occured in-between our weather recording intervals... More about our weather records

Advertising

Red Deer Weather History for the Previous 24 Hours

Scroll right to see more
 ConditionsComfort  
Time TempWeatherWind HumidityBarometerVisibility
4:00 pm
Fri, Jan 20
32 °FPassing clouds.3 mph55%29.42 "Hg15 mi
3:00 pm32 °FPassing clouds.No wind60%29.41 "Hg15 mi
2:00 pm32 °FPassing clouds.No wind60%29.41 "Hg15 mi
1:00 pm30 °FPassing clouds.2 mph64%29.40 "Hg15 mi
12:00 pm28 °FPassing clouds.3 mph64%29.43 "Hg15 mi
11:00 am25 °FPassing clouds.5 mph69%29.44 "Hg15 mi
10:00 am16 °FPassing clouds.5 mph79%29.46 "Hg15 mi
9:00 am18 °FPassing clouds.5 mph79%29.46 "Hg15 mi
8:00 am21 °FPassing clouds.6 mph74%29.46 "Hg15 mi
7:00 am14 °FPassing clouds.5 mph85%29.46 "Hg15 mi
6:00 am14 °FPassing clouds.2 mph85%29.45 "Hg15 mi
5:00 am19 °FPassing clouds.2 mph79%29.44 "Hg15 mi
4:00 am23 °FPassing clouds.5 mph74%29.43 "Hg15 mi
3:00 am23 °FPassing clouds.8 mph74%29.43 "Hg15 mi
2:00 am25 °FPassing clouds.9 mph69%29.42 "Hg15 mi
1:00 am30 °FPassing clouds.6 mph55%29.40 "Hg15 mi
12:00 am25 °FPassing clouds.No wind69%29.41 "Hg15 mi
11:00 pm
Thu, Jan 19
32 °FPassing clouds.8 mph51%29.37 "Hg15 mi
10:00 pm32 °FPassing clouds.7 mph55%29.37 "Hg15 mi
9:00 pm30 °FPassing clouds.3 mph59%29.37 "Hg15 mi
8:00 pm25 °FPassing clouds.9 mph74%29.36 "Hg15 mi
7:00 pm36 °FPassing clouds.7 mph52%29.34 "Hg15 mi
6:00 pm41 °FPassing clouds.10 mph49%29.31 "Hg15 mi
5:00 pm43 °FPassing clouds.9 mph49%29.27 "Hg15 mi
Weather by CustomWeather, © 2017

See weather overviewHow to use our weather pages